Flag for USA Past Weather in Kykotsmovi Village, Hopi, Arizona, USA — Yesterday and Last 2 Weeks

Now
71 °F

Sunny.


Feels Like: 77 °F
Forecast: 63 / 98 °F
Wind: No wind

Location: Winslow Municipal Airport

Current Time: Jul 28, 2016 at 7:43:28 AM

Latest Report: Jul 28, 2016 at 6:56 AM


Visibility: 10 mi

Pressure: 29.91 "Hg (24.48 "Hg at 1727m altitude)

Humidity: 51%

Dew Point: 52 °F

Location of Kykotsmovi Village, HopiLocation

Past Weather in Kykotsmovi Village, Hopi — Graph

°F

Kykotsmovi Village, Hopi Temperature Yesterday

Maximum temperature yesterday: 101 °F (at 1:56 PM)
Minimum temperature yesterday: 64 °F (at 4:56 AM)
Average temperature yesterday: 83 °F

High & Low Weather Summary for the Past Weeks

 TemperatureHumidityPressure
High102 °F (Jul 15, 3:56 PM)90% (Jul 18, 12:56 AM)30.20 "Hg (Jul 18, 12:56 AM)
Low59 °F (Jul 20, 4:56 AM)7% (Jul 13, 12:56 PM)29.73 "Hg (Jul 15, 6:56 PM)
Average80 °F37%29.92 "Hg
* Reported Jul 13 5:56 AM — Jul 28 5:56 AM, Kykotsmovi Village, Hopi, Weather by CustomWeather, © 2016

Note: Actual official high and low records may vary slightly from our data, if they occured in-between our weather recording intervals... More about our weather records

Advertising

Kykotsmovi Village, Hopi Weather History for the Previous 24 Hours

Scroll right to see more
 ConditionsComfort  
Time TempWeatherWind HumidityBarometerVisibility
5:56 AM
Thu, Jul 28
64 °FSunny.3 mph52%29.90 "Hg10 mi
4:56 AM63 °FClear.5 mph48%29.88 "Hg10 mi
3:56 AM64 °FClear.5 mph49%29.86 "Hg10 mi
2:56 AM70 °FClear.3 mph39%29.85 "Hg10 mi
1:56 AM70 °FClear.9 mph38%29.81 "Hg10 mi
12:56 AM71 °FClear.9 mph39%29.82 "Hg10 mi
11:56 PM
Wed, Jul 27
72 °FClear.7 mph34%29.83 "Hg10 mi
10:56 PM79 °FClear.5 mph29%29.80 "Hg10 mi
9:56 PM80 °FClear.6 mph21%29.80 "Hg10 mi
8:56 PM79 °FClear.8 mph21%29.81 "Hg10 mi
7:56 PM90 °FClear.8 mph15%29.78 "Hg10 mi
6:56 PM97 °FSunny.10 mph12%29.76 "Hg10 mi
5:56 PM100 °FSunny.5 mph10%29.76 "Hg10 mi
4:56 PM99 °FSunny.3 mph12%29.77 "Hg10 mi
3:56 PM98 °FSunny.7 mph13%29.79 "Hg10 mi
2:56 PM88 °FLight rain. Broken clouds.17 mph26%29.85 "Hg9 mi
1:56 PM101 °FThundershowers. Sunny.No wind12%29.83 "Hg10 mi
12:56 PM98 °FSunny.N/A15%29.85 "Hg10 mi
11:56 AM97 °FSunny.7 mph17%29.88 "Hg10 mi
10:56 AM94 °FSunny.6 mph20%29.91 "Hg10 mi
9:56 AM89 °FSunny.No wind24%29.93 "Hg10 mi
8:56 AM83 °FSunny.3 mph31%29.93 "Hg10 mi
7:56 AM78 °FSunny.No wind39%29.94 "Hg10 mi
Weather by CustomWeather, © 2016

See weather overviewHow to use our weather pages